Terug naar catalogus

NOAA 16 DEB

ActiefSSO
NORAD 41046·DEBRIS·🇺🇸 United States

Gelanceerd Sep 21, 2000 vanaf Vandenberg Space Force Base

Loading…

Volgende Passages (komende 24 uur)

TLE

VersSource: Space-Track

Epoch: Sep 14, 2026, 10:30 UTC

1 41046U 00055D   26257.43796497  .00000494  00000-0  25632-3 0  9994
2 41046  98.6115 319.6704 0013750  67.0009 293.2616 14.19110525558146

Volg NOAA 16 DEB in realtime met AllMySat

Download on the App Store